Theta_e
342 345 345 340 335 334 336 333 330 333 333 330 330 332 337 340 328 327 352 355 337 338 348 341 336 336 333 331 330 331 332 333 334 334 334 334 333 333 334 333 332 333 333 332 330 329 329 328 328 329 327 324 322 321 321 320 319 320 323 324 323 323 323 321 321 322 322 323 324 325 325 325 325 326 326 326 326 327 327 327 326 326 326 324 324 326 327
334 338 339 338 332 331 332 331 332 333 332 331 331 334 339 337 332 335 342 343 342 339 337 337 335 332 331 330 330 332 332 333 335 334 334 334 333 333 332 330 331 332 331 330 328 328 329 328 329 329 327 324 321 320 321 320 320 321 323 323 322 323 323 322 322 322 322 322 323 323 323 322 323 325 325 326 327 327 326 326 325 326 326 325 324 326 328
330 341 340 335 333 332 330 332 339 338 333 334 333 333 336 334 334 340 336 333 340 338 332 333 333 331 332 331 330 333 332 333 335 334 333 333 332 332 330 329 330 330 329 328 328 328 329 329 329 329 328 324 320 320 320 319 320 321 322 322 322 323 323 323 323 323 322 322 322 322 322 321 322 324 325 326 327 327 326 325 325 326 327 325 323 326 329
329 339 335 333 338 334 328 332 341 340 334 333 332 332 338 336 337 342 333 329 343 345 333 331 331 330 331 331 330 333 332 333 334 333 333 333 331 331 330 329 329 328 327 328 328 328 329 329 329 329 329 325 321 320 321 320 320 322 322 322 323 323 323 323 323 323 322 322 322 322 323 324 325 326 325 326 327 327 327 326 325 326 327 325 325 327 328
332 339 334 337 344 334 330 340 346 340 334 333 331 333 339 339 340 341 333 334 349 347 336 338 336 330 330 331 331 333 333 333 333 333 332 331 331 331 330 329 328 327 327 328 328 329 328 329 329 329 328 324 320 321 322 320 321 323 324 324 324 323 324 324 325 323 322 322 322 323 325 327 328 328 327 326 327 327 326 326 325 326 326 326 326 327 327
334 343 339 337 336 328 333 352 351 336 331 332 332 334 336 338 341 340 338 345 351 341 339 345 340 332 333 332 332 333 333 333 333 332 332 331 331 331 330 329 328 327 328 328 329 329 329 329 329 329 326 324 322 323 324 323 323 323 325 326 325 325 325 325 325 324 322 322 323 324 325 326 328 329 328 327 327 326 325 326 325 325 326 326 326 327 326
335 339 335 329 331 335 345 355 345 331 330 333 332 334 339 342 344 344 343 351 351 339 335 336 333 331 333 332 332 333 333 333 332 332 331 331 331 331 330 329 328 328 328 329 329 329 329 328 328 327 326 324 324 325 327 327 325 324 325 327 327 327 327 326 325 323 322 321 322 322 323 325 327 329 327 326 326 325 324 325 324 324 325 326 326 326 326
335 332 330 330 337 345 348 346 339 332 334 334 331 333 339 342 343 349 352 350 342 332 329 330 330 331 331 331 333 333 332 332 332 331 331 332 332 331 330 328 328 328 328 328 329 329 328 326 325 326 326 325 325 326 327 327 328 326 326 327 328 328 328 327 325 323 320 320 319 319 322 323 325 327 326 324 324 324 324 324 324 325 325 326 326 326 326
337 336 334 334 335 336 338 340 336 331 331 334 331 332 340 343 338 341 349 346 336 330 329 330 330 330 331 332 332 332 332 332 332 331 332 331 331 330 329 328 328 328 328 328 329 327 326 324 325 326 327 326 326 327 326 326 328 328 327 327 328 328 328 327 324 321 320 319 318 319 321 323 324 325 324 323 324 324 324 324 325 325 325 326 326 326 326
339 335 330 330 328 330 340 347 339 328 327 332 330 329 341 349 337 331 339 342 336 331 329 328 329 331 334 337 335 332 332 332 332 332 331 330 330 329 328 328 328 328 329 329 327 326 325 325 326 327 328 327 326 326 325 325 328 329 328 328 328 328 328 326 323 321 320 319 318 320 322 322 323 324 324 323 324 324 324 324 325 325 325 324 324 324 324
334 327 324 329 328 329 342 351 340 327 325 329 327 327 340 347 334 327 334 336 331 329 328 329 331 334 339 342 336 331 331 332 331 330 330 329 329 329 328 329 329 328 329 327 327 327 326 326 327 328 328 328 326 325 325 325 326 327 327 327 327 326 325 325 324 322 319 319 319 320 321 322 323 324 324 323 324 325 324 324 325 325 324 323 322 322 323
333 328 327 330 328 331 345 350 337 327 327 328 326 328 341 343 331 329 334 331 329 330 328 329 332 335 340 340 334 330 331 331 329 330 330 329 329 329 330 330 329 327 328 327 327 327 327 327 328 328 328 327 326 325 325 324 324 324 324 326 326 324 323 323 324 321 319 319 320 320 320 322 323 324 323 323 323 324 324 324 325 324 322 322 322 321 321
332 330 327 328 331 336 344 341 332 327 328 328 327 332 341 337 329 330 333 330 329 330 328 330 332 333 333 333 331 330 331 330 330 331 331 330 330 330 331 330 328 328 328 327 327 327 327 328 328 328 328 326 326 325 324 324 323 323 323 325 325 323 323 322 322 320 319 320 320 319 319 321 323 323 323 322 322 322 323 324 324 323 322 323 323 322 320
330 332 330 327 331 335 332 330 328 325 328 333 335 336 335 330 329 331 332 330 330 330 329 331 330 330 330 330 331 331 330 330 331 331 331 331 331 332 332 330 329 328 328 327 328 328 328 328 328 327 327 326 325 325 324 324 324 323 324 325 324 323 324 324 323 322 320 320 320 319 318 320 322 322 321 320 320 321 322 323 322 322 322 323 324 323 320
331 329 325 325 332 334 329 327 330 330 331 337 338 332 329 329 331 331 330 331 331 329 330 330 330 330 330 329 329 329 329 329 330 330 331 331 331 332 332 330 330 329 328 327 328 328 328 328 327 327 326 326 326 325 325 324 324 323 324 325 324 324 325 326 325 322 320 320 321 320 318 319 321 320 320 320 320 320 321 321 321 322 322 323 323 324 321
333 330 328 330 334 333 329 329 333 334 333 334 332 329 329 330 330 330 331 331 330 330 331 330 330 330 329 329 329 329 328 328 328 328 328 328 328 330 331 331 330 328 327 327 327 328 327 327 327 326 326 326 326 325 325 324 323 324 324 324 324 325 326 326 324 321 321 322 321 320 319 320 320 319 320 320 320 320 321 321 321 322 323 323 323 324 323
339 337 337 335 330 326 326 329 331 331 329 330 330 330 330 329 328 329 330 329 330 329 329 329 330 329 328 328 327 327 327 328 328 327 327 327 327 328 328 329 328 327 327 327 327 326 326 326 326 326 326 326 327 326 325 324 324 325 325 324 324 324 324 326 324 321 321 322 321 320 320 320 320 320 320 320 321 321 321 321 321 322 322 323 323 323 325
335 331 331 331 328 325 327 329 328 329 329 330 330 328 328 328 328 327 327 328 329 328 327 329 329 327 326 326 325 326 326 327 327 327 327 327 327 327 326 327 326 326 326 326 326 325 325 325 326 327 326 327 327 325 324 323 324 325 325 324 324 323 323 324 322 321 321 322 321 321 321 321 321 320 320 320 321 321 321 321 321 321 321 322 322 323 324
333 330 330 331 328 325 326 328 328 329 330 330 328 328 328 327 327 326 327 327 327 326 327 327 326 326 325 325 324 324 324 325 326 327 327 326 326 326 326 326 325 325 326 326 325 324 323 324 326 327 327 327 326 325 324 323 324 324 324 323 323 323 324 323 322 321 321 322 321 321 321 321 321 321 321 321 322 321 322 322 322 321 321 321 322 322 323
332 329 327 326 325 324 325 327 328 329 329 329 327 326 326 326 326 326 327 326 326 326 325 325 324 325 325 324 324 324 323 323 324 324 325 326 326 325 326 325 325 325 325 325 324 323 324 325 326 326 327 326 325 324 324 324 324 323 323 323 323 323 324 323 321 321 321 321 321 321 321 321 321 321 321 322 322 322 322 322 322 322 321 321 321 322 322
329 326 324 324 326 327 325 326 327 327 327 327 326 325 326 326 325 325 325 325 325 324 324 324 324 324 324 324 324 324 323 323 324 324 324 325 325 325 326 324 324 324 323 323 323 323 325 326 326 326 326 325 323 323 324 324 324 324 323 322 322 323 323 322 321 321 321 321 321 321 321 321 321 321 321 321 321 322 322 322 322 322 322 321 321 321 322
332 332 329 328 332 332 326 324 326 326 325 326 325 325 326 325 324 325 324 324 324 324 324 324 324 324 324 324 324 324 324 324 324 324 325 325 325 325 324 323 323 323 323 323 324 324 325 326 326 326 325 323 323 323 323 323 323 323 323 322 321 322 322 321 321 321 321 321 321 321 321 320 320 321 321 321 321 321 322 322 322 322 322 322 321 321 320
335 333 327 325 329 330 326 324 326 326 325 326 325 325 325 324 324 324 324 323 324 324 323 324 324 324 325 325 325 325 324 324 324 325 325 326 325 324 324 323 323 323 323 324 324 323 325 326 326 325 324 323 323 322 322 322 322 322 322 322 322 322 322 321 321 321 320 321 321 321 321 321 321 321 321 321 321 321 322 322 322 322 322 322 321 321 321
326 325 324 324 324 325 325 325 326 325 325 326 325 324 324 324 323 323 323 324 324 323 324 325 325 325 325 325 325 324 324 324 324 324 324 325 324 323 323 323 323 323 323 323 323 323 324 325 325 325 324 323 322 322 322 322 322 322 323 323 322 322 322 321 321 320 320 321 321 321 321 321 321 321 321 321 321 321 322 322 322 323 322 321 321 321 321
321 322 324 324 323 324 325 325 324 324 324 324 324 323 323 323 323 323 323 323 323 323 324 325 325 325 325 324 325 324 324 324 323 323 324 324 323 323 323 323 322 322 323 323 323 323 323 324 324 324 324 323 322 323 322 322 322 323 323 323 323 323 322 321 321 320 321 322 322 322 322 321 321 321 322 322 322 321 321 322 322 323 323 322 321 321 321
323 323 323 324 324 324 324 323 323 322 322 322 323 323 323 323 323 323 323 323 323 323 323 324 324 324 324 324 324 324 323 323 323 323 323 323 322 323 323 322 322 322 322 323 323 322 323 323 324 323 322 322 322 322 322 322 323 324 324 323 322 322 323 323 323 322 322 322 322 322 321 321 321 322 322 322 322 321 321 322 322 323 323 322 321 321 321
322 323 323 324 324 323 323 323 323 322 322 322 322 323 323 323 323 323 323 323 323 323 324 324 323 324 324 324 324 323 323 323 323 323 323 323 323 323 322 322 322 322 323 323 323 323 323 323 322 321 321 321 322 322 322 323 323 323 324 323 322 322 323 323 323 323 323 323 322 321 321 321 322 322 322 322 321 321 321 322 322 322 322 322 321 321 321
322 322 322 322 322 322 323 323 322 322 322 323 323 323 323 323 323 323 323 324 324 324 324 324 324 324 324 324 323 323 323 323 323 323 323 323 323 323 323 323 322 322 322 323 323 323 323 322 321 321 321 322 322 323 323 323 322 322 322 322 322 322 322 322 323 323 323 322 322 321 321 322 322 322 322 321 321 321 321 321 322 321 321 320 320 320 320
321 321 321 321 321 321 321 322 323 323 323 323 324 324 324 324 324 324 324 324 324 324 324 324 324 324 324 323 323 323 323 323 322 323 323 322 323 323 323 323 322 322 322 322 322 322 322 321 321 321 321 322 323 323 323 323 322 323 324 324 323 324 324 324 324 323 322 322 321 321 321 322 322 321 321 321 320 321 321 321 321 320 320 320 320 319 319
321 321 321 321 320 321 321 322 323 323 324 324 324 324 324 324 324 323 324 324 324 324 324 324 324 324 324 324 323 323 323 323 322 322 322 323 323 324 323 323 322 322 321 321 321 321 321 321 321 322 322 322 321 321 321 321 321 323 325 324 323 323 324 323 322 322 322 322 322 321 322 322 321 321 320 320 320 320 320 320 320 320 320 320 319 319 318
321 321 321 321 320 321 322 322 323 323 324 324 324 324 324 324 323 324 324 324 324 324 323 323 323 323 323 323 323 322 323 323 322 322 322 322 322 323 323 322 322 321 321 321 321 321 322 322 322 322 322 321 320 319 320 320 320 321 322 323 322 321 322 322 322 322 322 322 322 322 322 322 320 319 319 319 319 319 319 319 320 319 319 319 318 318 318
320 321 322 321 321 322 323 323 323 324 324 324 324 324 324 324 324 324 324 323 323 322 321 321 321 321 321 321 321 321 322 322 323 322 322 322 322 323 323 322 322 321 321 321 321 322 322 322 322 321 322 322 321 319 320 321 321 321 321 322 321 320 321 322 323 322 322 322 322 323 322 320 319 319 319 318 318 318 319 318 318 318 318 318 317 317 316
321 322 322 322 323 323 324 324 324 324 324 324 324 323 323 323 323 323 323 322 321 320 320 320 319 319 319 319 319 319 321 322 322 322 322 322 323 324 324 323 322 322 321 321 322 323 322 322 322 322 322 322 322 321 321 321 321 321 322 322 321 321 321 322 323 323 322 322 322 322 320 319 319 319 319 318 318 318 317 317 316 316 317 317 316 315 315
321 322 322 323 322 323 323 323 323 323 324 323 323 323 323 322 322 322 321 320 320 319 319 319 318 318 318 317 317 319 321 322 322 323 323 323 323 323 323 322 322 322 322 322 322 322 322 322 322 321 321 321 321 321 321 321 321 321 322 322 322 322 321 321 322 323 322 322 321 321 320 319 319 319 318 318 317 317 316 316 315 315 315 315 315 314 314
321 321 321 322 322 322 323 323 323 323 323 323 323 323 322 322 322 321 320 319 319 319 319 318 318 318 317 317 318 320 321 321 321 321 321 321 321 321 321 322 322 322 322 322 321 320 320 320 319 319 318 319 318 318 319 320 320 321 321 321 321 322 321 321 322 322 321 321 321 320 320 320 319 318 318 317 316 316 315 314 313 313 313 313 313 313 313
320 321 321 322 322 323 322 323 322 322 322 323 323 322 322 322 321 320 319 319 319 319 319 319 319 318 318 318 318 319 320 321 320 320 320 320 320 320 321 321 322 321 321 320 320 319 318 317 316 315 315 315 317 319 320 321 321 322 322 322 321 321 321 321 321 321 321 320 320 320 319 318 317 316 315 314 314 313 313 312 311 311 311 311 311 311 311
320 321 322 322 322 323 323 323 323 322 323 322 322 322 322 321 320 320 319 319 319 319 319 319 319 318 317 317 318 319 319 319 319 319 319 319 320 321 321 321 320 319 319 318 318 317 316 316 315 314 314 315 318 321 321 321 321 321 322 321 321 321 321 320 320 320 319 318 317 315 313 311 310 309 309 309 310 310 311 311 310 309 309 309 309 308 309
320 321 322 322 322 323 322 322 322 322 322 322 321 321 321 320 320 320 320 320 320 320 320 319 319 318 317 316 317 318 318 317 318 318 319 319 320 320 320 319 318 318 317 317 317 316 315 314 314 314 314 316 319 320 320 320 320 320 320 320 320 319 319 318 317 316 315 313 311 309 307 306 305 305 305 306 307 308 308 308 308 307 307 306 306 306 306
321 322 322 322 322 322 322 322 322 321 321 322 321 320 320 320 320 320 320 320 320 319 319 318 318 317 316 316 316 317 317 317 317 318 318 319 319 319 318 318 317 316 315 314 313 312 311 312 312 313 314 317 317 318 318 318 318 318 317 317 317 316 315 314 313 311 310 308 307 305 304 304 304 304 304 304 305 305 305 305 305 304 304 304 304 304 304
322 322 322 322 322 322 321 321 321 320 320 320 320 320 320 319 319 319 319 319 318 318 318 318 317 316 316 316 316 316 317 318 317 318 318 319 319 318 317 317 316 315 314 311 309 307 308 310 312 313 314 315 315 315 315 315 314 314 314 313 312 312 311 310 309 308 307 306 305 303 302 302 301 302 301 302 302 302 302 302 302 302 302 302 302 302 302
321 322 322 322 321 321 321 321 321 320 320 319 319 319 319 319 319 319 318 318 317 317 317 317 316 316 316 316 316 317 318 318 318 318 318 318 318 317 316 315 314 312 310 308 307 307 308 310 311 312 312 313 313 313 312 312 312 311 311 311 310 310 309 308 307 307 306 305 304 302 301 300 300 300 300 299 299 299 299 299 300 300 300 300 300 300 300
321 322 322 322 321 321 321 321 320 320 319 319 319 318 318 318 318 318 317 317 317 318 317 317 316 316 316 316 316 317 317 317 317 318 317 317 316 316 315 314 313 310 308 307 308 307 307 308 309 310 311 311 311 311 310 310 310 310 309 309 309 308 308 307 307 306 305 304 302 300 299 299 299 299 298 298 298 297 297 298 298 298 298 298 298 298 298
320 321 321 321 321 321 321 321 320 320 319 319 318 318 318 318 317 317 316 317 317 317 317 317 316 316 317 317 317 316 316 316 317 317 316 315 315 314 314 314 312 309 308 308 308 307 307 307 307 308 308 309 309 309 309 308 308 308 308 308 307 307 307 306 306 305 304 302 300 299 299 299 299 298 298 298 297 297 297 297 297 297 297 297 297 297 297
320 321 321 321 321 321 321 320 320 319 319 318 318 318 317 317 317 316 316 316 317 316 316 317 317 317 317 317 317 316 316 316 317 317 316 315 314 313 313 312 310 309 308 308 308 307 306 306 306 305 306 307 307 307 307 306 306 306 306 305 305 305 305 304 303 302 301 300 299 298 299 299 298 298 298 297 297 297 296 296 296 296 296 296 296 296 296
320 320 321 321 321 320 320 320 319 319 319 318 318 317 317 317 317 316 316 316 316 316 317 318 318 318 317 317 317 317 317 317 317 317 316 315 314 313 311 310 309 309 309 308 308 307 306 305 304 304 304 304 304 304 303 303 303 303 303 302 302 302 302 301 301 300 299 298 298 298 299 298 298 297 297 297 296 296 296 296 296 296 296 296 296 296 295
319 319 320 320 320 319 319 319 319 319 319 319 318 318 317 317 316 316 316 317 316 316 317 318 319 318 318 317 317 317 317 316 316 315 314 313 312 312 311 310 310 310 309 308 307 306 305 304 303 303 303 302 302 301 301 301 301 301 300 300 299 299 300 300 299 298 298 298 298 298 298 298 297 297 296 296 296 296 295 295 295 295 295 295 295 295 294
318 319 319 319 318 318 318 318 318 319 319 318 318 317 317 316 316 316 316 316 316 316 317 317 318 318 318 317 317 317 317 316 314 313 312 311 311 311 310 309 308 308 307 306 305 305 304 303 303 302 302 301 301 300 300 300 300 299 299 298 298 298 299 299 298 298 298 298 297 297 297 297 296 296 296 295 295 295 295 295 294 294 294 294 293 293 293
318 318 318 318 318 318 318 318 319 319 318 317 316 316 316 315 316 316 315 315 316 316 317 317 316 317 317 317 316 316 315 314 312 311 311 310 310 309 308 307 306 305 305 305 304 304 303 303 302 301 301 300 300 299 299 299 298 298 298 298 297 297 298 298 297 297 297 297 297 296 296 296 296 295 295 295 295 294 294 294 293 293 293 292 292 292 291
317 317 317 317 318 318 318 318 318 318 317 316 316 315 315 315 315 316 316 316 316 316 316 315 315 315 316 316 315 314 313 312 311 310 310 310 309 308 307 306 305 304 304 304 304 304 303 302 301 300 300 299 299 299 299 298 298 298 298 298 297 297 297 296 296 296 296 296 296 296 295 295 295 295 294 294 294 293 293 292 292 292 291 291 290 290 290
317 316 316 316 316 316 317 317 317 317 316 316 316 315 315 315 315 316 316 316 316 316 315 314 313 314 314 314 314 313 312 311 310 310 309 309 308 307 306 306 305 304 304 304 304 303 302 301 300 299 299 299 298 298 298 298 298 298 298 297 297 297 296 296 296 296 295 295 295 295 294 294 294 294 294 293 293 292 292 291 290 290 290 290 290 290 289
316 316 316 316 316 316 316 316 316 316 316 316 316 316 316 315 315 316 316 316 316 315 315 314 313 313 313 312 312 312 311 310 309 309 308 308 307 306 305 305 304 304 304 304 303 302 301 300 299 299 298 298 298 298 298 298 298 297 297 297 297 296 296 296 296 295 295 295 294 294 294 294 293 293 293 292 292 291 291 290 290 289 289 289 289 289 289
315 315 315 316 315 315 314 314 314 315 316 316 315 316 316 316 316 316 316 316 315 315 315 315 314 313 312 311 312 311 310 309 308 307 307 306 306 305 305 304 304 303 303 303 302 301 300 299 299 298 298 297 297 297 297 297 297 297 297 296 296 296 295 295 295 295 295 294 294 294 294 293 293 293 293 292 291 291 291 290 290 289 289 289 289 289 289
Wind_Speed
3 4 4 3 3 3 3 4 4 5 3 6 7 7 6 7 6 8 8 8 8 9 9 10 12 13 13 16 21 24 26 28 29 30 29 28 26 23 21 18 16 14 12 9 7 9 9 7 6 7 9 8 8 9 11 11 12 11 10 9 7 6 6 8 9 11 11 13 14 15 16 17 18 18 17 16 15 14 13 12 13 15 17 18 18 19 21
1 4 5 2 3 2 1 2 5 6 5 6 7 7 7 9 9 9 6 7 9 9 6 7 10 11 11 13 18 22 25 28 30 31 31 28 26 24 20 17 15 14 11 8 9 11 10 7 6 7 8 8 7 9 11 11 11 9 8 7 6 6 7 8 10 11 13 15 16 16 16 18 18 18 17 15 14 14 13 12 12 15 17 18 17 18 20
4 4 1 2 3 3 2 4 4 4 5 5 4 3 4 5 6 8 4 4 7 8 5 5 9 15 15 15 20 25 28 31 32 31 30 28 26 22 18 15 14 12 9 10 12 12 10 8 5 6 7 7 7 9 11 11 9 8 8 7 7 7 9 9 11 13 14 15 17 17 18 18 17 16 15 14 14 14 13 13 14 15 17 18 18 17 19
5 4 2 2 2 3 1 7 7 5 4 4 3 3 3 5 5 4 2 3 6 6 3 4 10 19 21 20 24 26 28 32 34 33 31 29 25 21 17 15 13 11 11 13 14 12 10 7 6 6 7 7 7 9 10 10 9 8 8 7 8 9 10 10 11 13 15 16 17 16 16 15 15 14 13 13 13 15 15 14 15 16 17 17 17 17 19
4 5 1 2 4 5 4 7 5 5 4 3 4 4 4 6 6 5 4 6 6 5 6 6 6 11 15 21 28 30 32 35 34 32 30 27 24 20 17 14 12 12 14 14 14 12 9 7 6 6 7 7 7 7 8 10 9 8 8 8 8 9 9 11 12 13 14 15 14 13 13 14 13 13 13 12 13 14 16 16 16 17 16 15 15 16 18
3 6 2 3 3 2 6 6 5 5 4 5 6 7 7 6 4 4 4 5 4 6 8 9 11 14 19 28 36 37 36 36 33 31 28 25 22 19 16 14 14 15 15 14 13 11 9 7 7 6 7 7 7 7 7 9 10 10 9 10 10 10 10 12 13 14 13 12 12 13 13 14 14 14 13 13 13 13 15 16 16 16 16 14 14 14 18
2 2 2 1 4 7 7 6 4 6 7 6 6 8 8 7 5 4 3 4 7 9 11 14 19 23 25 29 34 36 34 32 30 28 27 24 21 19 17 16 17 17 16 15 14 11 9 7 7 8 8 7 7 8 8 10 11 11 11 11 12 12 13 14 14 14 12 12 13 14 14 15 16 14 14 14 12 12 13 14 15 17 16 14 13 15 19
2 1 2 3 6 7 6 8 6 5 4 2 2 6 7 6 5 5 5 6 6 8 9 11 14 17 17 19 26 32 30 28 26 24 23 21 20 19 19 18 18 17 15 14 12 10 8 7 9 9 8 7 6 8 9 10 12 13 12 12 12 13 14 15 15 13 12 13 14 14 15 15 16 15 14 13 11 10 12 14 15 17 16 14 14 16 20
3 3 3 3 5 6 6 6 5 3 2 2 2 3 6 6 4 6 6 5 5 5 6 8 12 15 14 10 16 25 27 25 22 19 17 17 18 18 18 17 16 14 13 12 10 9 8 8 10 9 7 7 8 9 9 11 13 14 13 12 12 13 14 14 14 12 13 15 16 15 15 15 15 15 14 12 10 10 12 13 14 16 16 15 14 15 19
3 3 1 2 3 5 6 8 8 5 5 5 6 4 5 6 5 9 8 6 7 6 6 11 15 15 10 3 9 20 23 21 20 18 17 17 17 17 17 16 15 14 13 12 10 10 10 11 11 9 8 8 9 10 11 12 14 16 15 14 13 12 12 12 12 12 14 16 16 15 15 15 14 14 12 10 10 10 12 12 13 14 17 18 17 16 17
2 4 3 3 4 6 7 9 10 7 4 5 7 2 6 7 4 11 12 9 9 11 13 17 16 11 5 4 11 18 21 18 19 20 19 18 17 17 15 14 14 12 11 11 12 14 14 13 12 10 9 9 10 11 12 12 14 17 17 16 13 11 11 11 11 12 13 14 15 15 15 14 13 12 10 10 10 11 12 12 11 14 17 19 18 16 16
3 5 4 3 3 5 7 9 8 4 5 8 5 3 7 6 4 12 16 14 13 15 18 18 12 7 6 6 10 15 18 17 19 20 19 19 18 17 15 14 12 11 12 13 15 17 16 13 11 11 11 11 11 12 12 12 14 16 15 14 12 10 10 10 11 12 12 13 14 13 13 12 11 10 10 11 11 12 12 11 12 15 17 18 18 16 15
5 5 4 3 3 6 7 7 8 6 8 6 2 6 7 6 7 13 17 17 17 20 22 18 13 12 10 5 6 11 14 15 18 19 18 18 17 16 16 15 14 14 15 16 18 18 15 12 12 13 12 11 11 11 11 12 14 13 11 11 10 10 10 10 10 11 11 12 12 12 12 11 11 10 11 12 13 13 12 11 12 14 15 17 19 18 14
3 3 3 3 4 6 7 5 5 8 6 2 6 6 7 10 12 14 17 19 20 23 25 22 17 14 11 6 5 9 11 12 14 15 17 19 19 18 18 17 17 18 17 18 19 18 15 14 14 14 13 12 10 10 11 12 12 10 8 9 9 10 11 11 11 12 13 13 13 13 13 12 11 11 12 12 13 13 12 11 12 13 14 16 19 19 15
3 1 2 3 5 7 12 10 5 4 4 5 9 11 10 12 14 14 17 21 22 23 25 22 16 11 10 9 7 8 9 9 9 12 16 17 18 19 20 21 21 20 19 20 20 17 15 15 15 14 14 13 10 10 11 11 9 9 9 9 10 11 12 13 12 13 14 14 13 12 12 11 11 11 11 10 11 11 11 12 12 12 13 14 16 18 17
4 2 5 6 5 8 19 15 5 7 9 10 19 22 15 14 16 16 17 19 20 20 21 19 15 11 10 10 8 8 9 9 8 10 13 14 15 17 20 22 22 21 22 22 19 16 15 15 15 15 14 12 11 11 11 9 8 10 11 11 12 13 13 13 13 12 13 13 11 10 10 11 10 9 9 9 10 11 12 13 12 12 12 13 14 16 18
5 4 6 6 4 2 14 12 6 11 16 16 23 25 20 19 19 16 16 18 18 18 17 16 15 13 10 8 7 7 8 8 8 9 10 12 14 15 18 21 22 23 23 21 18 16 15 15 16 16 14 12 12 12 10 8 10 13 14 14 15 16 15 14 13 13 12 10 7 8 9 10 9 9 9 9 11 13 14 14 13 12 12 13 13 14 16
3 1 2 4 5 4 6 7 6 15 21 21 21 21 18 19 17 13 12 14 15 15 14 14 14 11 8 7 5 5 6 7 9 10 12 14 15 17 19 21 22 23 22 20 18 16 15 15 17 17 14 12 13 11 9 10 13 14 14 14 14 16 16 14 13 12 11 8 7 8 9 9 9 10 9 10 11 14 15 15 14 13 12 13 13 13 13
2 1 5 6 5 4 5 6 10 16 18 17 16 14 13 13 12 10 9 10 12 12 11 11 11 9 8 6 5 5 6 7 9 11 14 16 17 19 20 21 21 21 21 20 18 17 16 16 17 17 15 14 14 11 11 13 15 15 14 13 13 15 15 14 12 11 10 8 8 9 8 8 9 9 9 10 12 14 15 15 15 14 13 13 14 13 12
1 2 5 4 7 8 8 9 11 13 14 13 11 11 12 12 12 11 10 10 10 9 7 6 6 5 5 5 5 6 7 8 10 11 13 15 17 19 20 19 19 20 21 20 19 17 15 14 15 17 16 14 13 13 13 14 14 14 13 14 14 14 13 13 12 11 9 8 8 8 8 7 9 9 10 11 12 12 13 14 15 15 14 14 14 14 13
3 2 5 2 9 11 8 11 14 14 15 16 14 13 13 14 13 12 11 9 7 5 3 2 1 3 3 4 6 7 8 9 11 12 14 15 17 18 18 18 18 19 20 19 18 15 12 11 13 15 14 13 13 13 14 14 13 12 13 13 11 11 12 12 12 12 11 11 10 9 9 9 9 10 10 11 13 12 11 12 14 15 14 14 14 14 14
0 3 6 4 3 3 5 13 18 18 17 16 16 16 14 13 12 10 8 7 5 3 2 1 1 2 3 4 6 7 8 9 10 11 12 14 16 17 17 18 18 19 18 16 15 13 11 11 12 13 12 12 12 13 13 12 11 11 11 11 11 11 12 13 14 14 14 13 12 11 11 12 12 11 10 11 12 12 11 10 11 13 13 13 13 13 13
4 6 11 10 5 6 12 16 18 18 16 16 16 15 13 12 10 8 6 5 4 3 1 1 0 0 1 2 3 4 5 6 7 8 9 12 15 15 16 17 17 16 15 14 14 13 12 12 12 13 13 12 11 12 12 12 12 12 12 13 15 15 15 16 16 15 14 13 12 12 12 12 13 12 11 11 11 11 10 9 9 10 11 11 11 11 11
4 5 12 13 8 6 13 18 17 16 15 16 15 14 12 11 10 7 5 4 3 2 2 3 2 2 2 1 1 2 3 3 4 5 7 11 13 13 13 14 14 14 14 14 15 15 14 13 13 14 13 12 11 12 12 13 14 14 13 14 16 17 18 18 17 16 14 14 13 13 12 12 13 12 13 13 12 10 9 8 7 7 8 9 9 9 10
6 6 9 11 10 9 14 16 15 14 13 13 12 12 10 9 9 7 6 4 2 2 2 3 4 2 1 0 2 3 3 4 4 5 7 10 12 13 13 14 14 15 15 15 16 16 15 15 15 15 15 14 14 14 14 16 17 17 16 15 16 17 19 19 18 16 16 15 13 12 12 12 13 12 13 14 13 10 7 7 6 6 6 8 8 8 9
4 5 7 6 8 13 17 16 14 14 14 12 11 11 11 10 9 8 7 5 5 4 4 5 4 3 2 2 3 3 4 5 5 5 7 9 12 13 14 14 14 14 15 15 16 17 17 16 16 15 15 16 16 16 17 17 17 17 17 16 16 17 18 18 18 17 15 13 11 10 11 12 12 12 12 13 13 11 8 7 7 6 6 7 7 8 9
4 6 9 7 9 16 19 16 15 17 17 15 14 14 13 12 11 10 9 8 7 7 7 6 5 4 4 4 3 3 3 4 5 7 7 8 9 11 12 13 13 13 14 15 16 17 17 16 16 15 14 14 15 16 19 19 19 18 18 17 17 17 17 18 18 16 13 11 10 10 12 12 11 11 11 12 12 12 10 8 8 7 6 7 8 10 10
12 12 11 8 10 16 20 17 16 17 18 17 15 15 15 14 12 10 9 9 9 8 7 6 5 4 4 3 2 2 2 3 4 6 7 7 8 9 11 11 11 11 12 15 17 18 17 16 17 18 17 16 15 17 20 20 19 19 18 18 17 16 15 14 13 12 10 10 9 10 10 10 10 10 11 11 11 10 10 9 8 8 7 7 8 9 10
18 17 18 19 17 18 20 19 19 19 18 17 16 16 15 14 12 10 9 8 7 6 5 5 4 4 3 3 3 4 4 5 6 7 8 8 8 9 9 10 10 10 11 13 16 17 17 18 18 18 16 15 15 18 20 18 17 19 19 18 16 14 11 10 10 10 9 8 8 9 10 10 10 10 10 9 9 9 9 9 9 9 10 10 9 9 8
21 19 22 23 20 18 20 23 23 21 19 18 17 15 13 11 10 9 7 6 5 5 5 4 4 3 3 4 5 5 6 7 8 9 10 10 10 10 10 10 11 11 12 13 15 15 16 16 16 15 14 13 15 17 18 17 17 19 19 16 12 11 9 8 9 9 7 7 8 10 10 9 9 8 7 7 6 7 7 8 9 10 11 12 13 12 10
21 18 21 22 19 20 24 25 23 21 19 17 15 14 12 11 10 8 7 6 6 5 4 3 2 1 2 3 5 6 8 9 10 11 12 12 12 12 12 12 12 11 11 11 11 11 12 12 13 13 14 14 15 16 15 12 13 17 17 14 11 10 11 9 8 8 7 8 9 9 9 8 7 6 6 5 5 6 7 8 9 10 11 12 13 13 11
19 15 16 19 21 23 25 25 22 20 19 17 16 15 13 12 10 9 8 7 5 3 1 1 2 4 5 6 7 7 7 9 10 11 12 13 13 13 12 11 9 8 7 7 8 9 11 11 12 13 13 11 11 12 12 11 11 13 14 14 13 14 15 13 10 9 9 9 9 9 8 6 6 5 4 4 5 6 7 8 9 9 10 11 11 12 11
18 17 19 23 26 26 25 24 22 21 20 18 17 15 13 10 9 8 7 5 3 1 2 3 5 6 7 8 9 8 7 7 9 10 11 11 11 10 8 5 3 3 5 8 9 10 11 10 10 11 11 9 9 10 11 11 11 12 14 15 14 15 15 13 10 9 9 9 9 8 6 5 4 4 3 4 6 7 8 9 10 9 9 10 10 10 9
24 24 24 26 27 26 27 27 25 22 21 19 15 13 11 9 7 5 4 2 0 2 3 4 5 7 8 9 9 8 7 6 7 8 7 7 7 6 5 4 4 6 8 10 10 11 11 10 10 11 10 9 8 7 6 7 9 12 14 14 13 13 13 11 11 11 10 9 8 7 5 4 4 3 3 5 7 8 9 10 10 9 8 8 7 8 8
30 32 30 29 29 28 28 28 26 23 22 19 16 13 11 9 7 4 2 0 1 2 3 5 6 7 8 8 8 7 6 6 6 6 5 5 5 5 5 5 5 7 8 9 9 9 9 8 8 7 5 4 3 4 4 4 6 9 11 13 15 14 11 11 11 10 8 7 6 5 4 4 4 5 6 7 8 9 9 8 8 7 7 5 5 6 7
30 32 30 29 29 28 26 25 23 22 20 17 16 14 12 8 6 4 2 1 1 1 3 5 6 7 7 7 6 5 4 4 3 3 4 4 5 5 5 5 5 5 6 6 6 6 6 5 4 3 3 2 1 3 4 5 6 7 9 11 11 9 8 9 9 7 6 5 4 4 5 5 6 8 8 9 9 8 7 6 4 3 2 2 2 4 5
30 31 29 27 26 24 22 21 20 18 17 16 15 13 10 8 6 4 2 2 1 1 3 4 6 6 5 4 3 2 1 1 1 1 3 5 5 5 5 5 4 4 5 5 4 4 4 4 2 3 2 1 4 6 6 6 6 7 7 7 6 6 7 6 5 4 3 3 3 5 6 7 8 8 8 8 7 6 5 4 3 2 1 0 1 2 3
26 26 24 24 24 21 19 19 18 17 16 15 14 11 8 7 6 4 3 2 1 1 3 4 4 4 3 2 1 2 3 3 4 4 5 5 5 5 5 4 4 3 3 3 2 2 3 2 2 1 1 4 6 8 7 6 6 6 6 6 5 5 5 4 3 2 2 4 6 7 8 8 7 7 6 5 5 4 3 2 1 1 2 3 3 3 3
25 26 26 25 24 22 20 19 17 15 13 12 11 11 9 7 6 5 2 1 1 2 3 3 3 3 2 1 2 2 3 4 4 4 5 5 4 4 4 4 3 1 1 2 4 4 4 2 1 1 4 7 8 8 7 6 5 5 5 5 5 4 3 2 2 3 5 7 7 7 8 7 6 4 3 2 1 1 1 2 3 3 3 3 3 3 4
31 29 28 27 26 23 22 19 16 14 11 9 9 9 9 7 5 4 2 1 2 3 3 3 2 1 1 2 2 3 4 5 4 3 4 4 3 3 4 5 2 2 4 6 6 6 4 2 2 4 6 7 7 6 6 6 5 5 5 4 4 3 3 3 5 6 7 7 8 7 6 4 3 2 2 2 2 3 3 3 3 3 2 2 3 3 4
31 28 26 25 23 21 19 18 16 15 13 11 9 8 7 6 4 3 2 2 3 3 3 1 1 1 3 3 4 4 4 3 3 3 2 2 3 5 6 6 5 5 7 7 6 5 3 2 3 4 5 5 5 5 5 4 4 4 4 4 5 5 5 6 7 7 8 9 9 7 5 2 1 2 3 4 5 4 4 3 2 2 3 4 4 5 5
25 26 24 22 21 20 18 17 17 15 13 11 9 7 6 5 3 2 2 3 3 3 2 2 2 3 4 5 5 5 4 5 4 4 3 3 3 3 4 5 6 7 6 4 4 3 1 1 2 2 2 3 3 3 4 4 4 5 6 6 6 6 7 8 9 9 10 10 9 6 3 2 3 5 6 8 9 8 7 5 4 4 5 6 6 7 7
14 20 20 18 18 18 16 15 14 13 12 10 8 6 5 4 3 3 4 4 3 2 2 2 3 5 6 6 6 6 6 6 6 5 6 7 6 3 3 5 6 6 4 3 3 3 3 2 2 2 3 4 4 4 4 4 5 6 7 7 7 8 9 9 9 9 10 9 7 5 3 3 5 6 8 9 10 9 8 7 7 6 6 7 8 9 9
11 15 15 14 15 15 14 14 13 11 10 9 7 5 4 4 4 4 4 3 3 3 3 3 4 6 7 7 7 6 7 7 7 7 8 8 7 6 5 5 5 4 3 3 4 5 5 6 5 5 4 4 4 5 6 7 8 8 8 9 9 9 9 8 8 7 7 6 4 2 2 3 5 6 7 8 8 8 8 8 8 7 7 8 8 9 9
15 15 14 13 14 14 13 12 10 9 7 7 7 6 5 5 5 5 5 4 4 4 5 5 5 6 6 7 7 6 6 7 7 6 5 5 5 6 6 4 2 2 2 4 5 5 6 6 6 5 5 5 6 8 9 10 10 10 9 9 8 7 7 6 5 4 2 1 0 1 2 2 3 4 5 6 6 6 6 6 6 6 7 7 8 9 9
15 13 13 13 12 12 10 9 7 6 6 6 7 7 6 5 5 5 5 5 4 5 5 5 5 5 6 7 9 10 10 10 8 5 2 1 2 4 4 2 1 3 4 5 5 5 5 5 5 5 6 7 8 9 11 11 11 10 9 7 6 5 5 4 3 1 1 1 2 2 1 1 3 4 5 5 5 6 6 6 6 7 8 8 9 10 10
12 11 11 10 10 9 8 7 6 6 5 5 6 7 7 6 6 5 5 5 5 6 6 6 6 6 6 7 8 10 11 11 10 7 4 3 2 3 2 1 3 4 4 4 4 4 5 5 5 5 6 7 8 10 11 10 9 8 6 4 3 2 2 2 0 1 2 2 1 0 1 2 3 5 6 7 8 8 9 9 9 10 10 10 11 11 11
8 8 8 7 6 6 6 6 6 6 6 6 6 6 6 6 6 6 6 6 7 7 7 7 8 8 8 8 8 8 8 7 7 6 6 4 2 1 1 2 3 4 4 3 3 4 5 5 5 5 6 8 9 10 10 8 7 4 2 2 2 2 1 1 1 2 3 3 3 3 4 5 6 7 8 9 10 10 11 12 11 11 11 11 10 9 8
7 6 6 6 5 5 5 5 5 6 6 6 6 5 5 6 7 7 7 7 8 9 9 9 10 10 10 10 9 9 8 5 4 4 6 6 4 3 2 2 4 5 5 3 2 3 3 4 4 5 6 8 9 9 8 6 4 3 2 1 2 2 1 1 2 3 4 6 6 7 8 8 9 9 10 11 11 12 12 11 11 10 9 7 6 4 4
7 6 6 6 5 5 5 5 5 5 5 5 4 4 4 5 6 7 8 9 9 10 11 11 11 10 10 10 9 9 9 7 5 5 6 7 6 4 3 4 5 5 5 5 3 2 2 2 3 4 5 7 8 7 6 4 2 2 2 2 2 2 2 2 2 4 6 8 9 9 9 10 10 11 11 11 11 11 10 9 8 6 5 4 3 3 4
7 6 6 6 6 6 6 5 5 5 4 4 3 3 3 4 5 7 9 10 10 11 12 12 11 10 10 10 10 10 10 9 9 9 9 8 7 5 5 4 5 6 7 7 6 5 4 3 3 3 4 5 6 6 5 4 4 3 3 3 3 3 3 3 4 5 8 9 10 11 10 10 10 11 11 11 11 10 9 8 7 6 4 3 3 3 4
6 6 5 4 4 4 3 3 4 5 5 5 5 5 5 5 7 9 11 11 10 11 12 12 12 11 11 11 12 12 12 11 11 11 10 8 7 6 6 6 6 7 8 9 8 7 6 5 3 3 3 4 5 5 5 5 5 4 4 4 4 5 5 5 5 6 8 10 11 11 11 11 11 12 12 12 11 9 8 8 7 6 5 4 4 4 4
Wind_Direction
232 201 216 214 162 177 188 182 237 272 211 172 183 207 200 157 167 244 241 184 199 241 233 216 208 195 191 193 190 189 187 186 188 189 192 196 198 201 202 203 209 212 212 217 237 252 259 266 278 299 307 300 298 301 298 300 309 312 310 309 309 303 300 312 323 323 324 328 331 331 331 332 335 338 339 339 338 334 326 323 332 343 346 340 333 334 339
273 248 256 231 121 122 270 217 222 246 247 218 209 215 200 182 208 240 221 193 223 243 233 224 215 200 190 182 180 181 183 184 186 189 192 197 199 201 201 205 207 205 209 229 243 246 248 250 271 298 303 297 296 299 299 301 307 308 305 303 300 292 293 306 319 323 322 325 327 327 327 326 328 332 335 336 338 339 338 339 342 344 344 340 336 335 338
282 291 303 103 112 136 226 274 263 266 286 280 256 231 190 186 240 264 242 219 254 254 225 203 187 174 164 164 174 181 184 183 185 189 194 198 201 201 201 202 201 201 219 241 241 241 242 243 264 295 299 296 295 298 299 299 299 303 303 302 299 297 299 305 313 320 321 323 325 325 325 325 325 327 329 331 335 336 338 344 347 343 341 340 341 340 338
264 294 57 102 92 98 306 294 287 276 279 282 273 245 190 185 221 248 210 219 257 252 195 154 166 165 164 169 177 181 183 185 188 192 196 201 202 200 200 201 202 215 235 242 240 241 240 242 262 289 296 298 296 296 297 293 290 295 301 303 302 302 306 309 313 318 320 320 322 323 324 325 325 325 324 327 333 333 333 339 344 341 339 342 347 349 344
261 289 357 78 50 30 319 279 241 214 230 259 284 285 244 207 177 164 200 227 235 205 149 138 162 169 172 178 180 182 186 188 192 197 200 204 205 203 205 208 216 230 237 240 241 241 241 251 267 285 298 301 296 297 298 290 285 288 296 304 305 303 306 309 314 320 319 318 320 322 324 327 325 322 320 322 330 334 332 333 336 337 337 340 347 351 349
251 277 314 41 29 306 257 240 192 184 231 254 264 276 268 244 189 174 230 238 191 166 161 162 173 184 190 190 188 188 189 190 194 200 204 208 209 209 211 216 224 231 232 236 241 239 242 255 267 286 300 296 291 299 306 300 292 288 290 297 303 305 306 308 314 320 319 317 319 319 320 321 320 320 321 320 323 332 334 332 333 336 335 335 339 344 344
199 267 25 9 249 236 243 261 236 213 220 222 238 262 267 252 217 192 222 218 179 181 187 181 181 188 194 194 190 189 191 193 196 201 206 211 214 215 216 220 224 225 226 232 237 234 235 250 271 288 288 275 280 295 305 309 304 294 290 292 297 304 308 309 314 317 315 316 319 317 314 315 317 320 322 322 323 328 333 333 334 336 336 332 329 331 334
156 120 123 201 243 259 280 296 282 242 227 204 280 295 283 251 210 183 198 221 203 192 196 188 181 182 182 185 188 189 193 198 202 206 211 215 220 222 223 225 222 219 222 227 229 228 231 256 279 282 271 262 278 292 298 306 306 298 291 288 291 299 305 309 312 311 309 311 316 317 314 313 316 319 322 326 328 328 332 335 335 338 341 337 327 325 329
155 152 196 237 292 305 298 288 273 242 235 205 171 271 276 260 215 181 187 209 198 186 188 170 158 157 153 167 196 196 197 202 209 216 222 225 229 230 228 228 226 223 223 221 219 225 239 266 279 275 265 270 286 294 296 301 300 294 290 288 290 297 303 307 308 306 307 310 313 318 319 316 316 317 320 328 331 331 335 337 338 342 346 344 338 332 331
122 122 237 285 289 276 256 249 248 244 240 210 149 154 265 279 229 186 180 182 175 163 155 149 144 140 133 151 218 204 201 205 210 217 225 231 235 234 229 226 222 219 218 217 223 234 245 263 271 266 267 280 290 296 299 300 295 291 289 291 294 297 300 304 305 306 311 315 316 318 319 319 318 316 318 325 326 330 337 338 339 343 346 345 344 341 338
110 135 202 223 220 242 240 237 253 267 231 155 103 85 272 278 217 177 172 177 177 168 160 153 144 135 145 228 224 203 199 207 214 218 226 230 230 229 227 225 221 215 215 222 231 237 242 255 262 260 268 279 285 294 299 297 293 291 291 294 295 296 297 299 302 307 314 318 319 317 315 318 318 313 315 321 319 323 332 335 336 340 342 342 341 341 343
177 167 204 232 227 246 242 231 240 242 141 121 85 319 267 257 196 176 177 181 180 171 162 154 148 155 181 217 223 202 201 217 222 223 227 228 225 224 225 224 219 217 222 228 234 240 245 254 258 257 263 271 279 291 297 293 292 294 294 294 292 289 292 295 300 307 314 321 323 322 319 318 317 313 317 322 321 323 328 328 330 336 340 342 343 341 342
197 188 217 257 252 243 242 231 213 174 121 110 199 248 233 204 181 183 185 183 176 169 163 162 174 189 186 193 215 201 207 223 224 223 226 225 226 232 232 226 222 224 230 235 239 245 248 249 249 249 254 263 276 290 294 293 297 299 294 287 282 279 285 295 302 306 311 318 321 321 319 318 315 315 321 325 325 327 327 325 329 337 343 346 348 348 345
183 185 214 265 286 249 214 181 170 154 130 184 230 205 174 169 170 179 185 181 173 172 174 178 188 198 198 204 207 194 200 211 215 222 225 221 226 234 232 228 230 234 238 241 242 242 240 240 244 245 248 257 270 283 290 295 302 300 285 274 272 273 280 291 300 301 304 309 311 313 317 317 313 314 321 324 325 326 324 321 327 339 347 348 349 352 352
154 158 205 228 281 235 179 147 126 158 176 200 173 147 139 153 155 161 175 177 174 177 183 188 194 201 200 194 186 182 186 191 202 219 223 225 232 235 230 229 234 239 244 246 243 239 238 241 244 242 243 252 264 276 287 295 298 291 282 274 270 270 274 283 292 296 299 303 305 309 316 317 313 315 324 330 332 335 333 329 331 339 346 347 348 353 357
148 156 205 214 261 211 177 165 168 193 192 170 151 145 144 150 151 155 168 176 180 186 191 195 195 193 186 178 177 185 192 199 210 217 222 228 234 235 234 236 239 243 248 247 240 235 239 243 242 239 240 251 263 273 284 292 288 284 282 275 268 267 271 278 283 289 298 304 304 311 321 322 318 322 332 338 342 345 344 342 340 342 345 346 347 352 358
175 179 219 239 305 193 181 191 197 171 168 161 153 153 155 159 164 168 172 178 184 189 195 199 194 190 187 187 196 205 207 218 224 224 229 235 236 240 242 241 242 247 250 245 235 236 245 248 243 237 240 255 268 273 281 282 278 280 281 273 266 264 268 272 273 281 296 304 306 321 334 335 332 332 334 338 344 347 347 345 342 340 341 344 347 351 356
237 255 296 304 0 56 163 204 189 160 159 158 157 157 159 165 173 179 180 183 184 184 190 194 189 188 192 194 206 223 233 238 236 235 239 239 239 242 242 242 244 246 245 238 234 241 254 253 241 237 246 268 276 275 274 270 270 274 275 273 271 266 262 261 264 277 292 295 294 318 340 348 346 340 338 340 343 345 348 346 341 337 337 339 342 346 354
237 273 335 343 13 65 118 145 152 154 156 159 162 162 161 164 170 172 174 176 173 171 180 188 187 193 204 211 225 243 249 252 247 244 245 245 245 247 246 244 244 242 238 237 241 253 261 253 242 241 255 275 279 270 264 266 269 270 267 270 277 272 261 253 257 275 290 284 282 307 334 353 357 354 352 351 346 344 347 348 344 340 337 337 341 342 346
113 230 290 347 63 81 102 127 140 146 147 148 150 153 155 155 152 149 151 156 159 161 168 185 198 215 227 239 260 269 271 273 267 261 262 260 256 253 249 243 238 236 240 246 254 261 259 248 244 249 259 272 275 264 260 266 271 272 271 273 277 270 254 246 253 272 290 286 282 301 320 336 350 354 353 352 349 346 348 349 348 345 340 339 343 343 340
50 279 269 10 65 63 80 119 133 142 143 138 132 132 140 144 140 137 138 142 147 146 140 158 246 293 289 287 292 288 281 278 275 274 273 267 259 253 248 242 238 242 249 257 262 262 252 243 247 253 261 271 271 262 261 266 271 276 276 273 267 253 242 244 253 267 282 285 284 295 308 316 327 337 341 344 344 344 345 348 350 349 343 338 340 343 340
322 235 217 192 95 74 142 135 132 140 147 145 140 138 139 140 139 143 148 143 135 131 123 72 350 332 313 301 297 292 286 279 276 276 272 263 255 250 245 242 244 249 255 261 264 260 251 247 251 256 261 267 264 257 259 265 271 275 269 254 243 239 242 248 253 262 272 278 282 292 303 307 312 318 324 332 339 338 336 340 348 349 345 339 337 338 339
226 220 203 194 177 167 167 152 141 146 155 159 159 156 154 153 153 159 169 161 146 142 130 55 28 12 319 290 282 287 291 287 279 275 269 261 256 250 246 244 246 250 256 261 261 258 255 252 251 251 255 256 253 253 259 266 271 275 266 250 244 246 248 247 250 257 266 272 281 292 302 304 304 305 305 315 330 334 327 327 341 350 348 342 337 336 338
254 235 206 206 217 200 174 162 154 157 165 170 168 160 158 159 158 161 173 168 156 154 137 123 131 135 130 143 298 321 323 318 302 274 259 254 251 247 245 244 246 252 258 259 257 255 253 251 249 249 252 254 254 259 267 271 272 271 267 260 255 254 251 250 251 257 265 273 281 291 299 299 296 296 296 304 320 328 321 316 327 343 348 344 339 340 341
277 257 219 219 230 210 176 162 158 164 172 180 177 168 167 171 167 168 179 179 172 179 157 148 153 146 129 76 331 328 322 320 310 277 258 251 247 247 250 252 255 259 259 257 254 251 247 245 248 251 255 261 267 274 280 280 273 266 262 260 260 258 255 254 255 260 269 278 283 289 295 292 288 288 293 304 317 323 314 305 310 322 337 342 344 349 351
270 215 187 193 191 173 164 163 172 181 187 197 197 185 180 182 179 179 192 205 208 211 210 205 206 213 242 272 290 305 316 327 322 299 279 265 259 260 262 264 264 261 257 255 253 247 242 244 250 257 267 274 275 272 273 277 277 271 263 258 257 259 258 257 258 263 271 277 278 280 285 284 282 286 294 305 316 319 311 303 307 314 324 332 337 343 349
279 196 172 157 160 170 179 189 197 196 195 200 200 187 177 177 182 186 193 196 192 189 194 204 215 224 236 253 273 293 312 321 312 300 292 284 279 276 273 271 268 262 256 254 251 247 249 254 260 265 273 278 271 260 258 265 273 275 269 260 258 261 261 260 260 262 264 265 267 273 280 282 282 288 299 308 314 315 313 313 317 322 325 327 331 337 342
261 228 220 226 211 204 208 209 199 190 187 187 186 179 173 175 181 186 186 180 176 178 186 197 214 228 237 249 258 257 264 275 279 282 288 293 291 285 279 274 270 265 260 257 255 255 259 263 266 267 266 264 262 258 257 261 270 276 271 261 256 258 260 258 257 254 249 253 264 272 276 280 285 294 305 313 315 314 315 317 320 326 332 337 340 339 337
260 243 239 241 239 229 217 199 182 177 177 175 174 174 176 181 182 180 178 176 176 187 197 200 208 216 212 206 203 208 223 241 257 270 277 278 274 270 269 267 265 265 264 260 258 260 263 266 271 275 273 268 267 264 259 260 272 281 273 257 248 249 250 244 239 237 238 247 260 267 269 276 288 299 307 313 314 313 315 317 321 329 335 338 342 344 346
269 253 242 240 238 226 205 186 177 176 174 171 171 172 178 189 191 184 180 179 175 179 179 171 171 180 187 200 216 233 251 262 269 273 274 271 266 263 264 267 268 271 271 267 264 265 268 272 277 281 282 282 286 287 282 277 280 282 275 262 251 252 252 239 223 222 231 243 252 259 267 276 289 299 306 311 316 321 326 329 332 336 339 342 348 358 12
271 252 237 231 220 203 189 180 176 176 174 173 177 179 182 192 194 180 166 158 152 151 147 133 131 191 242 254 269 283 285 281 278 275 272 272 272 272 274 274 274 274 275 274 272 269 269 275 283 286 285 285 290 294 290 277 268 269 268 264 255 250 250 244 229 227 241 251 251 256 265 272 282 294 300 308 325 335 338 339 340 342 345 349 353 3 16
256 229 213 202 190 182 179 176 174 175 174 178 186 187 186 190 191 177 165 162 161 158 133 352 325 311 311 313 314 313 305 293 285 280 278 279 283 286 288 286 283 280 276 269 265 265 268 274 281 283 281 278 279 279 272 263 264 263 255 248 242 241 244 245 239 235 242 246 247 252 259 266 278 291 297 315 339 345 342 340 342 346 350 352 354 2 9
212 182 171 172 172 172 173 175 178 179 179 181 185 182 176 175 177 172 169 172 180 230 301 311 315 321 330 334 334 332 323 307 294 288 287 289 293 298 303 303 293 264 248 246 250 260 265 268 271 273 273 275 279 276 269 264 260 249 241 243 244 241 241 241 234 227 231 235 240 247 255 266 281 294 307 332 344 342 337 337 341 346 350 352 355 0 4
224 213 202 192 190 190 186 183 181 178 175 174 173 168 162 160 162 162 155 151 283 307 313 326 338 345 348 348 348 347 339 323 308 301 300 302 303 305 306 295 261 240 244 252 260 265 264 264 268 273 278 283 282 273 263 251 239 236 242 244 231 219 223 228 222 220 227 236 242 251 261 271 281 297 319 330 332 329 328 330 336 341 345 349 355 1 2
239 232 223 211 208 207 200 191 186 181 178 173 166 161 160 161 159 149 128 119 291 314 350 3 2 358 354 354 358 359 346 330 320 314 307 297 289 284 277 265 248 244 253 264 270 269 264 263 268 279 295 306 280 253 243 235 225 226 229 220 203 198 207 217 215 219 231 240 245 255 266 274 287 304 315 316 315 315 317 321 328 334 335 337 350 5 13
234 228 221 210 203 201 197 192 187 184 181 176 167 162 160 155 142 126 128 173 219 26 28 14 1 358 358 359 4 7 357 345 337 323 302 281 267 259 250 242 241 251 260 259 256 258 261 264 276 311 341 346 219 201 205 209 206 206 211 209 199 194 199 204 208 220 231 234 243 264 279 291 302 307 308 306 305 306 309 314 323 332 326 317 338 3 13
232 227 219 203 194 191 189 184 179 174 170 167 163 158 152 139 122 118 142 161 136 49 13 356 351 352 356 358 358 353 333 308 265 250 253 247 238 230 226 224 227 243 247 239 232 248 279 296 330 8 7 243 180 170 172 183 188 192 202 207 202 197 199 204 211 222 228 249 288 300 303 307 308 305 303 303 303 303 302 302 305 308 298 89 48 25 15
219 212 201 186 179 177 172 166 164 165 163 158 152 146 139 131 125 128 145 156 137 332 324 329 334 338 340 336 301 262 253 250 245 236 228 220 212 208 205 201 203 226 242 247 270 306 318 338 20 45 190 190 173 164 167 179 186 193 203 208 208 206 206 209 218 239 291 322 326 324 324 322 317 312 310 306 301 300 303 314 344 25 70 87 89 82 61
186 178 172 167 165 163 160 156 159 165 166 160 154 149 146 141 137 139 149 185 242 288 300 304 309 315 309 259 235 229 223 224 230 228 214 202 200 205 196 184 187 233 326 43 36 27 31 42 58 192 193 186 174 165 164 174 190 208 218 219 219 222 225 242 294 323 336 340 340 339 336 330 324 328 335 332 335 8 47 63 66 67 74 79 80 77 71
162 158 158 159 158 159 159 159 159 161 161 159 158 155 151 147 148 151 163 225 249 264 277 278 280 274 210 190 201 214 213 210 206 203 201 199 204 202 184 170 156 55 56 64 59 55 63 94 189 197 189 186 185 185 188 197 214 233 240 243 255 274 292 316 332 340 346 350 351 347 340 332 334 357 20 35 43 50 60 65 62 58 48 39 37 40 44
157 156 158 160 160 162 164 165 163 158 153 150 153 154 151 150 152 158 185 230 242 248 253 248 208 171 174 183 198 209 204 179 150 151 179 195 184 175 164 147 115 83 72 67 57 55 76 158 207 214 210 208 211 216 222 230 245 262 273 286 300 312 323 333 341 347 351 353 351 346 341 346 25 40 41 39 37 37 39 33 21 11 6 5 6 12 17
155 158 160 161 162 164 166 165 160 154 149 149 151 151 150 150 155 171 196 213 220 221 213 197 176 172 179 184 189 186 164 135 130 150 165 147 134 147 147 124 103 88 73 53 35 27 18 239 240 250 260 260 259 262 269 277 287 295 302 308 313 319 328 334 339 344 347 345 342 337 337 19 45 43 42 40 37 36 35 29 17 9 6 3 0 359 357
157 158 158 158 158 159 160 160 158 157 154 150 146 144 147 154 160 168 181 188 189 185 187 183 175 177 179 178 174 165 150 140 148 168 166 145 125 112 120 122 111 94 64 26 14 18 8 345 330 320 310 304 299 298 302 309 313 314 317 320 322 326 330 332 332 334 335 332 326 325 342 30 44 43 40 35 31 29 28 26 20 13 5 359 353 349 346
191 173 166 164 162 161 160 160 162 162 158 148 143 145 152 154 152 153 157 160 157 148 141 147 162 173 175 172 168 162 151 148 162 181 180 165 150 138 131 124 114 100 69 19 12 17 16 10 4 352 331 318 317 324 327 327 325 323 321 323 323 323 323 322 321 320 319 313 308 322 15 36 39 35 28 23 21 19 16 11 5 358 349 342 338 335 332
198 183 174 168 162 159 160 161 161 161 155 150 150 151 150 151 152 148 139 133 135 138 139 150 166 172 166 162 164 165 157 156 169 187 188 169 153 146 141 132 102 57 26 8 5 9 13 16 20 18 7 359 355 351 345 338 331 326 324 321 317 312 306 301 297 293 289 283 171 95 72 45 25 15 14 14 12 6 360 351 342 332 325 321 317 315 315
188 172 164 160 156 154 159 164 165 162 159 159 160 156 150 148 149 145 139 138 144 148 150 161 176 178 167 161 165 165 162 163 170 178 163 95 107 130 133 126 357 342 348 352 357 8 16 23 32 31 22 14 4 354 346 337 329 324 321 318 310 297 281 268 254 220 154 112 109 111 93 17 359 358 359 357 351 343 337 329 320 312 307 305 305 305 305
172 158 156 159 160 163 167 170 167 159 157 162 165 161 154 152 155 156 153 154 162 166 166 169 178 183 177 172 172 170 166 163 164 163 150 122 112 118 111 14 325 323 329 341 2 23 27 26 24 17 8 360 351 344 338 332 325 320 321 329 330 299 251 234 224 62 65 66 79 102 316 332 336 337 335 332 329 326 323 318 313 308 304 302 301 299 298
155 153 154 159 164 168 169 166 158 151 150 154 157 157 157 161 165 166 161 160 167 172 168 163 166 171 172 173 177 179 173 165 160 159 159 164 178 206 282 317 321 323 328 345 18 30 22 14 7 359 351 348 345 339 333 328 322 312 306 352 18 15 321 293 1 21 23 13 352 329 322 323 323 324 324 322 321 319 318 315 310 306 305 304 303 299 299
137 136 136 140 148 153 153 150 148 150 154 155 154 157 168 175 171 166 163 168 173 171 163 156 158 164 169 173 178 181 182 187 196 188 180 184 201 226 254 292 310 315 317 323 347 0 357 352 348 342 340 344 344 336 324 318 318 301 274 307 4 17 17 9 7 9 5 356 344 334 327 324 322 321 321 320 319 319 318 314 310 309 310 311 310 313 325
123 127 132 135 135 137 141 144 147 153 161 163 157 161 179 188 182 173 170 173 173 168 161 155 153 156 163 171 178 183 187 198 212 208 196 195 204 221 248 280 299 302 298 295 302 313 315 318 325 328 332 339 339 328 310 292 282 276 278 293 317 331 332 341 351 353 354 352 348 341 333 326 322 323 323 322 322 324 324 322 323 323 322 320 327 346 357
119 128 137 137 138 145 152 154 157 164 172 179 181 184 197 203 194 182 178 179 180 176 168 162 161 165 175 184 190 195 202 207 207 204 202 205 210 220 238 262 283 286 280 276 277 278 276 277 292 314 330 337 335 323 295 261 240 244 264 281 294 300 304 313 331 342 346 349 351 349 342 333 329 329 329 328 328 330 334 341 349 353 347 342 349 359 5
138 139 139 138 144 152 159 169 183 191 199 207 209 208 212 213 202 190 184 184 188 188 183 178 176 179 186 192 196 200 205 207 204 202 206 215 226 234 240 248 255 258 255 251 251 254 257 261 275 308 336 345 341 324 293 263 249 254 273 290 302 305 305 307 318 331 338 343 348 349 347 342 337 334 332 331 331 330 332 342 355 2 2 358 355 351 348